Hlavní strana
METAR-TAF:

METAR-TAF

Letiště :

Bellefontaine, Ohio, Spojené státy americké

zeměpisná šířka: 40-22-20N, zeměpisná délka: 083-49-08W, výška: 342 m

Aktuální stav počasí

Zpráva byla vytvořena před 19 minutami, v 11:00 UTC
Východní vítr 3 kt
Teplota 21°C
Vlhkost vzduchu 56%
Tlak 1017 hPa
Viditelnost: 16.1 km
Jasno

METAR: KEDJ 051100Z AUTO 09003KT 10SM CLR 21/12 A3003 RMK AO1

Čas: 07:19 (11:19 UTC)


TAF: chybějící

Stav a předpovědi počasí z více než 4 000 letišť (zprávy METAR a TAF).

Červené a žluté tečky na mapě představují dostupné meteorologické stanice.

Když kurzor umístíte na tečku, zobrazí se název stanice.

Pak kliknutím zobrazíte stav a předpověď počasí.

Chcete-li změnit mapu, kliknutím na zelené tlačítko se znaménkem +mapu přiblížíte, kliknutím na zelené tlačítko se znaménkem – mapu oddálíte a kliknutím na zelené šipky přejdete na sousední mapy.


METAR-TAF: